Showing default

IRIDIUM 105, 41921

Orbit data source: Space-Track

IRIDIUM 105, 41921 is a payload satellite owned by Iridium (US) in LEO that was launched on Sat, 14 Jan 2017 UTC via an FALCON 9 launch vehicle from the Air Force Western Test Range (AFWTR). Payloads include a variety of satellites, spacecraft, and rockets equipped with specific instruments for various scientific and technological missions. These include communications satellites like Starlink; space stations such as the ISS; scientific satellites like the Hubble; Earth observation satellites from companies like Planet Labs, Umbra, and HawkEye 360; GPS; miniature CubeSats for education and research; and military/defense satellites.

Loading next visibility...
IRIDIUM 105 details
Identifier
41921, 2017-003E
Orbit
LEO
Last TLE update7 hours ago
Origin
Flag of USIridium (US)
ManufacturerOATK SSG Gilbert
MissionOperational Commercial Communications
Bus & MotorELITEBUS, Unknown motor
Mass860 kg wet, 700 kg dry
Launch date (UTC)
2017-01-14 (8 years ago)
Launch vehicle
FALCON 9
Launch site
Air Force Western Test Range (AFWTR)
Object type
Payload
Rocket body
Debris
Shape & HBRTrap Box + 2 Pan, 9.4 m
Radar Cross Section14.423 m², Large (>1 m²)

Expand to show TLE details & history

TLE from 7 hours ago
0 IRIDIUM 105
1 41921U 17003E   24361.25243490  .00000856  00000-0  29848-3 0  9996
2 41921  86.3968 281.6291 0002056  84.0094 276.1336 14.34221035418035
Epoch: 2024-12-26T06:03Z
Definitive object data (Epoch: 2024-12-26T06:03:30.375Z)
Latitude-0.00002°
Longitude95.51804°
Altitude780.55 km
Speed7.464 km/s
True Right ascension18h 46m 30s
True Declination0° 00' 00"
Sunlit
Object was in daylight at TLE epoch
Visualization TLE readout
Latitude42.51428°
Longitude98.68991°
Altitude782.879 km
Speed7.467 km/s
Apparent Right ascension21h 31m 42s
Apparent Declination5° 27' 22"
Sunlit
Object is in daylight
Visualization observer readout
Local Sidereal Time12:18:48
Azimuth50.364° ENE
Elevation-30.558°
Doppler factor1
Orbital elements
Apogee altitude776.091 km
Perigee altitude773.15 km
Semi-major axis7,152.758 km
Eccentricity0.0002056
Inclination86.3968°
RAAN281.6291°
Arg. of periapsis84.0094°
True anomaly276.11017°
Mean anomaly276.1336°
Eccentric anomaly276.12189°
Mean motion3.58784 °/min
BSTAR0.00029848
Orbital period100.34 mins
Loading maneuver chart data...
Loading historical data...
Loading historical data...
Loading historical data...
Loading historical data...
Loading historical data...
Loading historical data...
Loading historical data...

IRIDIUM 105 Visibility forecast

Observer location: undefined°, undefined

Span
Click to sort rows by Start time (UTC) header in descending order
Start Az.
Max El. time (UTC)
Max El. Az.
Max El.
End time (UTC)
End Az.
10 mins2024-12-26 19:33:12.305Z183.425° SSW2024-12-26 19:38:12.305Z229.637° WSW44.706°2024-12-26 19:43:12.305Z0.923° NNE
6 mins2024-12-27 06:06:12.305Z39.805° NE2024-12-27 06:08:12.305Z69.769° E22.283°2024-12-27 06:12:12.305Z127.583° SE
7 mins2024-12-27 07:46:12.305Z330.704° NNW2024-12-27 07:49:12.305Z281.517° WNW30.067°2024-12-27 07:53:12.305Z215.624° SW
|